Regional Weather Roundup
Issued by NWS San Angelo, TX

Home | Current Version | Previous Version | Graphics & Text | Print | Product List | Glossary Off
Versions: 1 2 3 4 5 6 7 8 9 10 11 12 13 14 15 16 17 18 19 20 21 22 23 24 25 26 27 28 29 30 31 32 33 34 35 36 37 38 39 40 41 42 43 44 45 46 47 48 49 50

000
ASUS44 KSJT 190510
RWRSJT
WEST CENTRAL TEXAS REGIONAL WEATHER ROUNDUP
NATIONAL WEATHER SERVICE SAN ANGELO TX
1200 AM CDT SAT APR 19 2014

NOTE: "FAIR" INDICATES FEW OR NO CLOUDS BELOW 12,000 FEET WITH NO
SIGNIFICANT WEATHER AND/OR OBSTRUCTIONS TO VISIBILITY.

TXZ049-054-064>066-071>073-076>078-098-099-113-114-127-128-139-140-
154-155-168>170-190600
...LOCATIONS ACROSS WEST CENTRAL TEXAS...

CITY           SKY/WX    TMP DP  RH WIND       PRES   REMARKS
SAN ANGELO     CLEAR     64  44  48 SE8       30.11R
ABILENE        CLEAR     60  47  61 SE10      30.13R
DYESS AFB      CLEAR     61  48  61 SE7       30.12R
JUNCTION       CLEAR     65  51  60 E3        30.14R
SWEETWATER     CLEAR     60  45  56 SE7       30.16S
BROWNWOOD      PTCLDY    61  50  67 SE7       30.15R
COLEMAN        PTCLDY    58  49  70 SE6       30.15R
SONORA         PTCLDY    63  46  55 CALM      30.12S
OZONA          FAIR      63  46  55 S8        30.14R
BRADY          CLEAR     61  50  67 E6        30.14S
$$

TEXAS PANHANDLE/OKLAHOMA PANHANDLE

CITY           SKY/WX    TMP DP  RH WIND       PRES   REMARKS
AMARILLO       CLOUDY    60  43  53 S21       30.08F
BORGER         CLOUDY    60  44  55 S16G22    30.07S
CANADIAN       MOCLDY    57  49  73 S10G16    30.08F
DALHART        MOCLDY    60  43  53 S18       30.05F
DUMAS          CLOUDY    58  43  58 S13       30.07R
GUYMON         NOT AVBL
HEREFORD       PTCLDY    56  44  63 S14       30.09F
PAMPA          CLOUDY    55  44  67 S20G25    30.08F
PERRYTON       MOCLDY    54  46  73 S15       30.07S
$$

SOUTHERN PANHANDLE/SOUTH PLAINS/ROLLING PLAINS

CITY           SKY/WX    TMP DP  RH WIND       PRES   REMARKS
LUBBOCK        MOCLDY    57  41  55 SE12      30.10F
SNYDER         CLEAR     60  43  53 SE9       30.12S
CHILDRESS      CLOUDY    56  47  71 SE9       30.12S
SEMINOLE       PTCLDY    59  43  56 SE9       30.11R
$$

PERMIAN BASIN

CITY           SKY/WX    TMP DP  RH WIND       PRES   REMARKS
MIDLAND        MOCLDY    63  44  50 SE13      30.10R
ODESSA         MOCLDY    66  46  48 S14       30.10S
WINK           CLOUDY    68  47  46 SE17G25   30.04F
$$

FAR WEST/SOUTHWEST MOUNTAINS/TRANS PECOS

CITY           SKY/WX    TMP DP  RH WIND       PRES   REMARKS
ALPINE         PTCLDY    59  48  67 SE6       30.17S
DRYDEN           N/A     67  51  56 E10       30.07S
EL PASO        LGT RAIN  73  38  27 S12       30.02R
FORT STOCKTON  MOCLDY    64  48  56 SE21G31   30.07F
GUADALUPE PASS CLOUDY    59  45  59 NE32      30.12S
MARFA          CLEAR     57  46  67 S7        30.15S
PECOS          CLOUDY    66  48  52 SE18G26   30.03F
$$

DALLAS/FORT WORTH METROPLEX

CITY           SKY/WX    TMP DP  RH WIND       PRES   REMARKS
DFW AIRPORT    MOCLDY    62  47  57 CALM      30.14F
FTW MEACHAM    MOCLDY    63  50  62 E5        30.13F
DAL-EXECUTIVE  PTCLDY    61  47  59 E5        30.15S
GRAND PRAIRIE  PTCLDY    61  46  59 E3        30.17F
ADDISON          N/A     64  46  50 E5        30.17S HAZE
MESQUITE       MOCLDY    59  45  60 E3        30.17S
LANCASTER      PTCLDY    59  46  61 CALM      30.17S
$$

NORTH CENTRAL TEXAS

CITY           SKY/WX    TMP DP  RH WIND       PRES   REMARKS
SHRMAN/DENISON MOCLDY    62  44  51 SE8       30.17R
GAINESVILLE    MOCLDY    58  46  64 SE5       30.17S
BRIDGEPORT     MOCLDY    60  48  64 SE5       30.15F
DENTON         PTCLDY    57  50  77 E6        30.15S
WAXAHACHIE     PTCLDY    59  46  61 E3        30.17S
GRANBURY       MOCLDY    59  52  78 CALM      30.15F
$$

WESTERN NORTH TEXAS

CITY           SKY/WX    TMP DP  RH WIND       PRES   REMARKS
WICHITA FALLS  MOCLDY    57  50  77 SE7       30.13R
VERNON         MOCLDY    57  50  77 SE6       30.13S
BRECKENRIDGE   MOCLDY    64  49  59 SE8       30.13R
COMANCHE       MOCLDY    58  51  77 SE6       30.14F
$$

CENTRAL AND SOUTH CENTRAL TEXAS

CITY           SKY/WX    TMP DP  RH WIND       PRES   REMARKS
AUSTIN/BERGSTM PTCLDY    55  54  96 CALM      30.14F
WACO           PTCLDY    54  51  90 CALM      30.14S
HILLSBORO      PTCLDY    62  48  60 E7        30.15S
TEMPLE         MOCLDY    61  48  63 E5        30.17F
KILLEEN-GRAY   MOCLDY    63  52  67 E7        30.14F
FORT HOOD      NOT AVBL
GEORGETOWN     MOCLDY    57  52  82 CALM      30.14F
LAGO VISTA     FAIR      64  53  67 E6        30.16S
SAN MARCOS     CLEAR     57  46  67 E5        30.16S
NEW BRAUNFELS  PTCLDY    61  54  77 E6        30.13F
RANDOLPH AFB   CLEAR     61  55  80 NE2       30.14S
SAN ANTONIO    PTCLDY    65  55  70 E6        30.14S
STINSON        CLEAR     65  56  72 E3        30.12S
PLEASANTON     NOT AVBL
LA GRANGE      PTCLDY    60  57  90 CALM      30.13S
GIDDINGS       MOCLDY    58  54  84 CALM      30.18S
$$

EAST TEXAS

CITY           SKY/WX    TMP DP  RH WIND       PRES   REMARKS
PARIS          PTCLDY    55  46  71 SE8       30.18S
CLARKSVILLE    PTCLDY    61  46  59 CALM      30.18R
TYLER          MOCLDY    64  51  62 SE9       30.17R
LONGVIEW       PTCLDY    57  52  83 CALM      30.17R
PALESTINE      PTCLDY    64  50  61 E3        30.18S
NACOGDOCHES    MOCLDY    54  50  87 CALM      30.17S
$$

TEXAS HILL COUNTRY AND EDWARDS PLATEAU

CITY           SKY/WX    TMP DP  RH WIND       PRES   REMARKS
LLANO          CLEAR     59  52  77 CALM      30.18R
HORSESHOE BAY  FAIR      61  51  69 SE3       30.14S
KERRVILLE      MOCLDY    64  54  71 SE6       30.16R
FREDERICKSBRG  MOCLDY    62  52  70 CALM      30.16S
ROCKSPRINGS    CLEAR     63  48  59 SE6       30.15S
HONDO          PTCLDY    69  56  62 E12       30.15R
UVALDE         CLOUDY    68  55  64 E9        30.12F
DEL RIO        MOCLDY    71  52  50 SE8       30.07R
$$

SOUTHEAST TEXAS

CITY           SKY/WX    TMP DP  RH WIND       PRES   REMARKS
COLLEGE STN    CLEAR     62  53  72 E5        30.14S
CALDWELL       CLEAR     55  55 100 CALM      30.18S
CROCKETT       PTCLDY    57  55  94 NE3       30.19R
BRENHAM        CLEAR     60  54  79 CALM      30.16R
HUNTSVILLE     CLEAR     60  53  77 CALM      30.15S
CONROE         CLEAR     54  53  97 CALM      30.15S
HOUSTON BUSH   PTCLDY    62  54  74 E7        30.14R
HOUSTON HOBBY  PTCLDY    62  56  80 CALM      30.13S
PERLAND        CLEAR     60  55  83 CALM      30.15R
WHARTON        PTCLDY    60  57  89 CALM      30.16R
$$

THE UPPER TEXAS COAST

CITY           SKY/WX    TMP DP  RH WIND       PRES   REMARKS
ORANGE         CLEAR     61  57  85 CALM      30.15F
PORT ARTHUR    CLEAR     65  57  75 NE8       30.13S
GALVESTON      CLEAR     65  59  81 E3        30.14R
ANGLETON       NOT AVBL
BAY CITY       PTCLDY    58  57  95 CALM      30.15R
$$

TEXAS COASTAL BEND, RIO GRANDE PLAINS DEEP SOUTH TEXAS

CITY           SKY/WX    TMP DP  RH WIND       PRES   REMARKS
VICTORIA       PTCLDY    61  59  93 S5        30.15S
BEEVILLE       CLOUDY    65  58  79 S5        30.14S
ROCKPORT       PTCLDY    66  61  84 S6        30.15R
PORT ARANSAS   PTCLDY    65  63  93 S5        30.14R
PORT LAVACA    PTCLDY    61  57  88 CALM      30.15R
CORPUS CHRISTI MOCLDY    61  56  83 S3        30.15R
KINGSVILLE NAS PTCLDY    62  57  83 SE3       30.13F
COTULLA        CLOUDY    69  53  56 S10       30.12S
LAREDO         CLOUDY    69  55  60 SE13      30.14R
BROWNSVILLE    MOCLDY    63  61  93 CALM      30.14S
PORT ISABEL    PTCLDY    67  62  84 E8        30.13R
HEBBRONVILLE   CLOUDY    63  55  76 SE5       30.14S
MCALLEN        CLOUDY    64  60  87 SE7       30.14R
WESLACO        CLOUDY    63  58  85 SE3       30.13S
FALFURRIAS     MOCLDY    62  57  83 S3        30.13S
EDINBURG       CLOUDY    62  58  88 CALM      30.14S
$$



USA.gov is the U.S. government's official web portal to all federal, state and local government web resources and services.